When you browse on this site, cookies collect data to enhance your experience and personalize the content and advertising you see.
Visit our Privacy Policy to learn more. By continuing to use the site, you agree to this use of cookies and data.
  • In Hungary
  • List of Countries
  • For 7 days
  • Water Temperature
  • Satellite Maps
  • Weather Map
  • News
  • Weather Widgets
  • user-avatar
    Login

    Hourly Weather Glinki

    Today, 9 December, Sunday

    Time Temperature Precipitation Wind Pressure Humidity
    00:00 -8°C° 0 mm 2 mps 744 mmHg 95%
    01:00 -9°C° 0 mm 2 mps 744 mmHg 95%
    02:00 -12°C° 0 mm 3 mps 744 mmHg 95%
    03:00 -12°C° 0 mm 3 mps 744 mmHg 95%
    04:00 -13°C° 0 mm 3 mps 743 mmHg 95%
    05:00 -13°C° 0 mm 3 mps 743 mmHg 95%
    06:00 -14°C° 0 mm 3 mps 743 mmHg 95%
    07:00 -14°C° 0 mm 4 mps 743 mmHg 95%
    08:00 -14°C° 0 mm 4 mps 743 mmHg 95%
    09:00 -11°C° 0 mm 4 mps 742 mmHg 95%
    10:00 -10°C° 0.3 mm 4 mps 742 mmHg 95%
    11:00 -9°C° 0.3 mm 4 mps 742 mmHg 95%
    12:00 -8°C° 0.3 mm 5 mps 742 mmHg 94%
    13:00 -8°C° 0.4 mm 5 mps 742 mmHg 94%
    14:00 -7°C° 0.4 mm 5 mps 742 mmHg 94%
    15:00 -5°C° 0 mm 4 mps 741 mmHg 94%
    16:00 -5°C° 0.3 mm 5 mps 741 mmHg 94%
    17:00 -5°C° 0.3 mm 5 mps 741 mmHg 94%
    18:00 -5°C° 0.3 mm 5 mps 740 mmHg 94%
    19:00 -4°C° 0.3 mm 5 mps 740 mmHg 94%
    20:00 -4°C° 0.3 mm 5 mps 740 mmHg 94%
    21:00 -4°C° 0.3 mm 5 mps 740 mmHg 94%
    22:00 -2°C° 0.3 mm 5 mps 739 mmHg 93%
    23:00 -2°C° 0.3 mm 5 mps 739 mmHg 93%

    Tomorrow, 10 December, Monday

    Time Temperature Precipitation Wind Pressure Humidity
    00:00 -2°C° 0.3 mm 5 mps 739 mmHg 93%
    01:00 -2°C° 0.3 mm 5 mps 739 mmHg 93%
    02:00 -1°C° 0.3 mm 5 mps 739 mmHg 93%
    03:00 -1°C° 0.3 mm 5 mps 739 mmHg 93%
    04:00 -1°C° 0.3 mm 5 mps 739 mmHg 93%
    05:00 -1°C° 0.3 mm 5 mps 739 mmHg 93%
    06:00 -1°C° 0.3 mm 5 mps 738 mmHg 94%
    07:00 -1°C° 0.2 mm 5 mps 739 mmHg 94%
    08:00 -1°C° 0.2 mm 5 mps 739 mmHg 94%
    09:00 -1°C° 0.2 mm 5 mps 739 mmHg 95%
    10:00 -1°C° 0.1 mm 5 mps 739 mmHg 96%
    11:00 -1°C° 0.1 mm 4 mps 739 mmHg 97%
    12:00 -1°C° 0.1 mm 4 mps 739 mmHg 99%
    13:00 -1°C° 0 mm 4 mps 740 mmHg 99%
    14:00 -1°C° 0 mm 4 mps 740 mmHg 99%
    15:00 0°C° 0 mm 3 mps 740 mmHg 99%
    16:00 0°C° 0 mm 3 mps 740 mmHg 99%
    17:00 0°C° 0 mm 3 mps 741 mmHg 98%
    18:00 0°C° 0 mm 3 mps 741 mmHg 97%
    19:00 0°C° 0.2 mm 3 mps 741 mmHg 97%
    20:00 0°C° 0.2 mm 3 mps 741 mmHg 96%
    21:00 0°C° 0.2 mm 3 mps 741 mmHg 96%
    22:00 -1°C° 0.3 mm 4 mps 741 mmHg 95%
    23:00 -1°C° 0.3 mm 4 mps 741 mmHg 95%

    Day after tomorrow, 11 December, Tuesday

    Time Temperature Precipitation Wind Pressure Humidity
    00:00 -1°C° 0.3 mm 5 mps 741 mmHg 94%
    01:00 -2°C° 0.3 mm 5 mps 742 mmHg 94%
    02:00 -2°C° 0.3 mm 5 mps 742 mmHg 94%
    03:00 -2°C° 0.3 mm 5 mps 742 mmHg 94%
    04:00 -2°C° 0.5 mm 4 mps 742 mmHg 94%
    05:00 -2°C° 0.5 mm 4 mps 742 mmHg 94%
    06:00 -2°C° 0.5 mm 4 mps 741 mmHg 94%
    07:00 -2°C° 0.6 mm 4 mps 741 mmHg 95%
    08:00 -2°C° 0.6 mm 4 mps 742 mmHg 95%
    09:00 -2°C° 0.6 mm 4 mps 742 mmHg 95%
    10:00 -2°C° 0.4 mm 4 mps 742 mmHg 96%
    11:00 -1°C° 0.4 mm 3 mps 742 mmHg 97%
    12:00 -1°C° 0.4 mm 3 mps 742 mmHg 97%
    13:00 -1°C° 0 mm 3 mps 742 mmHg 98%
    14:00 -1°C° 0 mm 2 mps 743 mmHg 98%
    15:00 -1°C° 0 mm 2 mps 743 mmHg 98%
    16:00 -1°C° 0 mm 2 mps 743 mmHg 98%
    17:00 -2°C° 0 mm 2 mps 744 mmHg 97%
    18:00 0°C° 0 mm 1 mps 744 mmHg 97%
    19:00 0°C° 0 mm 1 mps 744 mmHg 96%
    20:00 0°C° 0 mm 1 mps 745 mmHg 96%
    21:00 0°C° 0 mm 1 mps 745 mmHg 96%
    22:00 +1°C° 0 mm 1 mps 745 mmHg 96%
    23:00 +1°C° 0 mm 1 mps 746 mmHg 95%

    12 December, Wednesday

    Time Temperature Precipitation Wind Pressure Humidity
    00:00 0°C° 0 mm 0 mps 746 mmHg 95%
    01:00 +1°C° 0 mm 1 mps 746 mmHg 95%
    02:00 +1°C° 0 mm 1 mps 746 mmHg 95%
    03:00 +1°C° 0 mm 1 mps 746 mmHg 95%
    04:00 -1°C° 0 mm 2 mps 747 mmHg 95%
    05:00 -1°C° 0 mm 2 mps 747 mmHg 95%
    06:00 -1°C° 0 mm 2 mps 747 mmHg 96%
    07:00 -1°C° 0 mm 3 mps 747 mmHg 96%
    08:00 -1°C° 0 mm 3 mps 747 mmHg 96%
    09:00 -1°C° 0 mm 3 mps 747 mmHg 96%
    10:00 -2°C° 0 mm 4 mps 747 mmHg 96%
    11:00 -2°C° 0 mm 4 mps 747 mmHg 97%
    12:00 -2°C° 0 mm 4 mps 747 mmHg 97%
    13:00 -2°C° 0 mm 4 mps 747 mmHg 97%
    14:00 -2°C° 0 mm 5 mps 747 mmHg 97%
    15:00 -2°C° 0 mm 5 mps 746 mmHg 97%
    16:00 -2°C° 0.1 mm 5 mps 746 mmHg 96%
    17:00 -2°C° 0.1 mm 5 mps 746 mmHg 96%
    18:00 -4°C° 0.1 mm 5 mps 746 mmHg 96%
    19:00 -4°C° 0.2 mm 5 mps 747 mmHg 96%
    20:00 -4°C° 0.2 mm 5 mps 747 mmHg 96%
    21:00 -4°C° 0.2 mm 5 mps 747 mmHg 95%
    22:00 -4°C° 0.2 mm 5 mps 747 mmHg 95%
    23:00 -4°C° 0.2 mm 5 mps 747 mmHg 95%

    13 December, Thursday

    Time Temperature Precipitation Wind Pressure Humidity
    00:00 -4°C° 0.2 mm 5 mps 747 mmHg 95%
    01:00 -4°C° 0.2 mm 5 mps 747 mmHg 95%
    02:00 -4°C° 0.2 mm 5 mps 747 mmHg 95%
    03:00 -4°C° 0.2 mm 5 mps 747 mmHg 95%
    04:00 -4°C° 0.3 mm 5 mps 747 mmHg 95%
    05:00 -4°C° 0.3 mm 5 mps 747 mmHg 95%
    06:00 -4°C° 0.3 mm 5 mps 747 mmHg 94%
    07:00 -3°C° 0.3 mm 4 mps 747 mmHg 94%
    08:00 -3°C° 0.3 mm 4 mps 747 mmHg 94%
    09:00 -3°C° 0.3 mm 4 mps 747 mmHg 94%
    10:00 -3°C° 0.3 mm 4 mps 748 mmHg 94%
    11:00 -3°C° 0.3 mm 4 mps 748 mmHg 94%
    12:00 -3°C° 0.3 mm 4 mps 748 mmHg 94%
    13:00 -3°C° 0.2 mm 4 mps 748 mmHg 94%
    14:00 -3°C° 0.2 mm 4 mps 748 mmHg 94%
    15:00 -3°C° 0.2 mm 4 mps 748 mmHg 94%
    16:00 -3°C° 0.3 mm 4 mps 748 mmHg 94%
    17:00 -4°C° 0.3 mm 4 mps 748 mmHg 95%
    18:00 -4°C° 0.3 mm 4 mps 749 mmHg 95%
    19:00 -4°C° 0.3 mm 4 mps 749 mmHg 95%
    20:00 -4°C° 0.3 mm 4 mps 749 mmHg 95%
    21:00 -4°C° 0.3 mm 4 mps 749 mmHg 95%
    22:00 -5°C° 0.3 mm 4 mps 750 mmHg 95%
    23:00 -5°C° 0.3 mm 4 mps 750 mmHg 95%

    14 December, Friday

    Time Temperature Precipitation Wind Pressure Humidity
    00:00 -5°C° 0.3 mm 4 mps 750 mmHg 95%
    01:00 -5°C° 0.2 mm 3 mps 750 mmHg 95%
    02:00 -5°C° 0.2 mm 3 mps 750 mmHg 95%
    03:00 -5°C° 0.2 mm 3 mps 750 mmHg 95%
    04:00 -5°C° 0.2 mm 3 mps 750 mmHg 95%
    05:00 -5°C° 0.2 mm 3 mps 750 mmHg 95%
    06:00 -6°C° 0.2 mm 3 mps 750 mmHg 95%
    07:00 -5°C° 0.2 mm 3 mps 751 mmHg 96%
    08:00 -5°C° 0.2 mm 3 mps 751 mmHg 96%
    09:00 -5°C° 0.2 mm 3 mps 751 mmHg 96%
    10:00 -5°C° 0.2 mm 3 mps 751 mmHg 95%
    11:00 -5°C° 0.2 mm 3 mps 751 mmHg 95%
    12:00 -5°C° 0.2 mm 3 mps 751 mmHg 94%
    13:00 -5°C° 0.2 mm 3 mps 751 mmHg 94%
    14:00 -5°C° 0.2 mm 3 mps 751 mmHg 94%
    15:00 -5°C° 0.2 mm 3 mps 751 mmHg 94%
    16:00 -5°C° 0.2 mm 3 mps 751 mmHg 94%
    17:00 -5°C° 0.2 mm 3 mps 751 mmHg 95%
    18:00 -5°C° 0.2 mm 4 mps 751 mmHg 95%
    19:00 -5°C° 0.3 mm 4 mps 751 mmHg 95%
    20:00 -7°C° 0.3 mm 4 mps 751 mmHg 95%
    21:00 -7°C° 0.3 mm 4 mps 751 mmHg 95%
    22:00 -7°C° 0.3 mm 4 mps 751 mmHg 95%
    23:00 -7°C° 0.3 mm 4 mps 751 mmHg 95%
    Show more